INTELSAT 30 (IS-30)

Last updated on June 27, 2019, 3:44 a.m. UTC

1 40271U 14062A   19177.46577080 -.00000144  00000-0  00000+0 0  9998
2 40271   0.0193  14.4332 0001350  63.3144 269.1713  1.00270915 17211
UTC
Height (km)
Latitude
Longitude
Inclination
Orbital Period
UTC large
Height (km)
Speed (km/s)
/
Latitude / Longitude
Inclination (degrees)
Orbital Period (minutes)
Azimuth
Elevation
Range (km)
Doppler Factor
iOS Compass Heading
iOS Angle

Next 30 passes for location: Hong Kong

Rise time Rise Azimuth (degrees) Set time Set Azimuth (degrees) Duration Max altitude (degrees)

No matching passes for this satellites